This is the latest recevied weather packets stored in our database for station/object VK5GR-12. If no packets are shown the sender has not sent any weather packets the latest 10 day(s).
| Time | Temp. | Humidity | Pressure | Rain* | Wind** | Luminosity | Snow |
|---|---|---|---|---|---|---|---|
| 1787834088 | 11.67° C | 77% | 1027.3 hPa | 0 mm | - | 0 W/m² | - |
| 1787833185 | 12.22° C | 77% | 1027.4 hPa | 0 mm | - | 0 W/m² | - |
| 1787832281 | 12.22° C | 76% | 1027.3 hPa | 0 mm | - | 0 W/m² | - |
| 1787831379 | 12.78° C | 76% | 1027.2 hPa | 0 mm | - | 0 W/m² | - |
| 1787830474 | 12.78° C | 75% | 1027.1 hPa | 0 mm | - | 0 W/m² | - |
| 1787829573 | 12.78° C | 74% | 1027.1 hPa | 0 mm | - | 0 W/m² | - |
| 1787828673 | 12.78° C | 73% | 1027 hPa | 0 mm | - | 0 W/m² | - |
| 1787827772 | 12.78° C | 73% | 1026.9 hPa | 0 mm | - | 0 W/m² | - |
| 1787826873 | 13.33° C | 73% | 1026.7 hPa | 0 mm | - | 0 W/m² | - |
| 1787825971 | 13.33° C | 73% | 1027 hPa | 0 mm | - | 0 W/m² | - |
| 1787825069 | 13.89° C | 71% | 1026.7 hPa | 0 mm | - | 0 W/m² | - |
| 1787824166 | 13.89° C | 71% | 1026.5 hPa | 0 mm | - | 0 W/m² | - |
| 1787823263 | 13.89° C | 68% | 1026.7 hPa | 0 mm | - | 0 W/m² | - |
| 1787822362 | 14.44° C | 66% | 1026.5 hPa | 0 mm | - | 0 W/m² | - |
| 1787821457 | 15° C | 62% | 1026.3 hPa | 0 mm | - | 0 W/m² | - |
| 1787820553 | 15° C | 61% | 1026.3 hPa | 0 mm | - | 0 W/m² | - |
| 1787819652 | 15.56° C | 58% | 1026.1 hPa | 0 mm | - | 1 W/m² | - |
| 1787818749 | 16.67° C | 57% | 1026.2 hPa | 0 mm | - | 6 W/m² | - |
| 1787817846 | 17.78° C | 52% | 1025.8 hPa | 0 mm | - | 18 W/m² | - |
| 1787816943 | 18.89° C | 49% | 1026 hPa | 0 mm | - | 36 W/m² | - |
| 1787816039 | 19.44° C | 46% | 1025.7 hPa | 0 mm | - | 63 W/m² | - |
| 1787815139 | 18.89° C | 47% | 1025.7 hPa | 0 mm | - | 92 W/m² | - |
| 1787814234 | 18.89° C | 50% | 1025.7 hPa | 0 mm | - | 102 W/m² | - |
| 1787813332 | 20° C | 49% | 1025.6 hPa | 0 mm | - | 140 W/m² | - |
| 1787812428 | 20° C | 46% | 1025.6 hPa | 0 mm | - | 194 W/m² | - |
* Rain latest hour (hover to see other rain measurements)
** Current wind speed in m/s (hover to see current wind gust speed)